Flag for Germany Weather past 2 weeks in Lutherstadt Eisleben, Saxony-Anhalt, Germany

48 °F


Feels Like: 47 °F
Forecast: 37 / 49 °F
Wind: 3 mph from Northeast

Location: Leipzig-Schkeuditz

Current Time: Oct 10, 2015 at 12:43:05 AM

Latest Report: Oct 9, 2015 at 11:00 PM

Visibility: 9 mi

Pressure: 30.22 "Hg

Humidity: 84%

Dew point: 43 °F

Location of Lutherstadt EislebenLocation

Historic Weather in Lutherstadt Eisleben — Graph


Lutherstadt Eisleben temperature yesterday

Maximum temperature yesterday: 53 °F (at 3:00 PM)
Minimum temperature yesterday: 47 °F (at 8:00 PM)
Average temperature yesterday: 49 °F

Past Weeks' High & Low Weather Summary

High69 °F (Oct 3, 5:00 PM)100% (Oct 9, 8:00 AM)30.67 "Hg (Oct 9, 8:00 AM)
Low36 °F (Oct 2, 7:00 AM)41% (Oct 1, 4:00 PM)29.74 "Hg (Oct 6, 6:00 PM)
Average54 °F79%30.21 "Hg
* Reported Sep 24 10:00 PM — Oct 9 10:00 PM, Lutherstadt Eisleben, Weather by CustomWeather, © 2015

Note: Actual official high and low records may vary slightly from our data, if they occured in-between our weather recording intervals... More about our weather records


Lutherstadt Eisleben weather history for previous 24 hours

Time TempWeatherWind HumidityBarometerVisibility
10:00 PM
Fri, Oct 9
47 °FOvercast.2 mph90%30.21 "Hg7 mi
9:00 PM47 °FOvercast.3 mph91%30.21 "Hg6 mi
8:00 PM47 °FDrizzle. Low clouds.3 mph93%30.21 "Hg4 mi
7:00 PM47 °FRain. Low clouds.3 mph94%30.19 "Hg3 mi
6:00 PM48 °FDrizzle. Low clouds.3 mph90%30.18 "Hg4 mi
5:00 PM50 °FFog.5 mph86%30.17 "Hg4 mi
4:00 PM52 °FOvercast.3 mph86%30.16 "Hg5 mi
3:00 PM53 °FOvercast.3 mph81%30.16 "Hg5 mi
2:00 PM52 °FOvercast.3 mph82%30.16 "Hg6 mi
1:00 PM51 °FOvercast.3 mph87%30.17 "Hg5 mi
12:00 PM50 °FOvercast.3 mph88%30.17 "Hg5 mi
11:00 AM49 °FFog.3 mph94%30.17 "Hg3 mi
10:00 AM48 °FFog.3 mph98%30.17 "Hg2 mi
9:00 AM47 °FFog.3 mph100%30.16 "Hg1 mi
8:00 AM47 °FFog.3 mph100%30.15 "Hg0 mi
7:00 AM47 °FFog.5 mph99%30.14 "Hg0 mi
5:00 AM49 °FFog.2 mph99%30.14 "Hg1 mi
4:00 AM49 °FFog.2 mph98%30.14 "Hg2 mi
3:00 AM50 °FFog.2 mph97%30.14 "Hg2 mi
2:00 AM50 °FLow clouds.2 mph98%30.14 "Hg2 mi
1:00 AM50 °FRain. Low clouds.2 mph98%30.15 "Hg2 mi
12:00 AM50 °FDrizzle. Low clouds.2 mph97%30.15 "Hg2 mi
Weather by CustomWeather, © 2015

See weather overviewHow to use our weather pages